カタログに戻る

HULIANWANG DIGUI-141

運用中通信LEO
NORAD 67439·PAYLOAD·🇨🇳 China

打ち上げ Jan 13, 2026 から Wenchang Space Launch Site

Loading…

次のパス (今後24時間)

TLE

最新Source: Space-Track

元期: Sep 14, 2026, 07:26 UTC

1 67439U 26007E   26257.31021237 -.00000080  00000-0  93905-4 0  9994
2 67439  50.0035 126.0950 0000435   0.4298 359.6575 13.29330350 32646

AllMySatでHULIANWANG DIGUI-141をリアルタイム追跡

Download on the App Store